Imperial, CA

3:43 PM PST on February 09, 2016 (GMT -0800)
Imperial County

Weather History for KIPL - February, 2013

Change the Weather History Date:

Monday, February 4, 2013

  Actual Average (KCZZ) Record (KCZZ)
Temperature  
Mean Temperature 65 °F 49 °F  
Max Temperature 79 °F 63 °F 83 °F (1963)
Min Temperature 51 °F 35 °F 18 °F (1955)
Degree Days  
Heating Degree Days 0 16  
Month to date heating degree days 64  
Since 1 July heating degree days 1680  
Cooling Degree Days 0 0  
Month to date cooling degree days 0  
Year to date cooling degree days 0  
Growing Degree Days 15 (Base 50)    
Moisture  
Dew Point 41 °F    
Average Humidity 48    
Maximum Humidity 77    
Minimum Humidity 20    
Precipitation  
Precipitation 0.00 in 0.10 in 1.39 in (1998)
Month to date precipitation 0.41  
Year to date precipitation 3.39  
Sea Level Pressure  
Sea Level Pressure 29.97 in    
Wind  
Wind Speed 4 mph (West)    
Max Wind Speed 8 mph    
Max Gust Speed -    
Visibility 10 miles    
Events      
T = Trace of Precipitation, MM = Missing Value Source: NWS Daily Summary

Daily Weather History Graph

Daily Weather History Graph

Search for Another Location

Airport or City:

Trip Planner

Search our weather history database for the weather conditions in past years. The results will help you decide how hot, cold, wet, or windy it might be!

Date:

Astronomy

Feb. 04, 2013 Rise Set
Actual Time 6:34 AM PST 5:18 PM PST
Civil Twilight 6:09 AM PST 5:43 PM PST
Nautical Twilight 5:39 AM PST 6:13 PM PST
Astronomical Twilight 5:10 AM PST 6:42 PM PST
Moon 1:11 AM PST (2/4) 11:50 AM PST (2/4)
Length of Visible Light 11h 34m
Length of Day
10h 43m
Last Quarter, 36% of the Moon is Illuminated
Feb 4
Last Quarter
Feb 9
New
Feb 17
First Quarter
Feb 25
Full
Mar 4
Last Quarter

Hourly Weather History & Observations

Time (PST) Temp. Dew Point Humidity Pressure Visibility Wind Dir Wind Speed Gust Speed Precip Events Conditions
12:53 AM 55.0 °F 45.0 °F 69% 29.99 in 10.0 mi West 4.6 mph - N/A   Clear
2:53 AM 51.8 °F 44.6 °F 76% 29.99 in 10.0 mi West 4.6 mph - N/A   Clear
3:53 AM 52.0 °F 44.1 °F 74% 29.98 in 10.0 mi West 4.6 mph - N/A   Clear
4:53 AM 51.1 °F 44.1 °F 77% 29.98 in 10.0 mi WSW 4.6 mph - N/A   Clear
5:53 AM 51.1 °F 44.1 °F 77% 29.99 in 10.0 mi WSW 5.8 mph - N/A   Clear
6:53 AM 51.1 °F 43.0 °F 74% 30.00 in 10.0 mi WSW 5.8 mph - N/A   Clear
7:53 AM 55.9 °F 46.0 °F 69% 30.02 in 10.0 mi West 3.5 mph - N/A   Clear
8:53 AM 63.0 °F 48.0 °F 58% 30.03 in 10.0 mi Calm Calm - N/A   Clear
9:53 AM 69.1 °F 44.1 °F 40% 30.04 in 10.0 mi NW 8.1 mph - N/A   Clear
10:53 AM 73.0 °F 44.1 °F 35% 30.03 in 10.0 mi Calm Calm - N/A   Clear
11:53 AM 75.0 °F 41.0 °F 29% 30.01 in 10.0 mi Calm Calm - N/A   Clear
12:53 PM 78.1 °F 35.1 °F 21% 29.98 in 10.0 mi Calm Calm - N/A   Clear
1:53 PM 78.1 °F 35.1 °F 21% 29.94 in 10.0 mi NNW 5.8 mph - N/A   Clear
2:53 PM 79.0 °F 35.1 °F 20% 29.92 in 10.0 mi NE 3.5 mph - N/A   Clear
3:53 PM 78.1 °F 34.0 °F 20% 29.92 in 10.0 mi Calm Calm - N/A   Clear
4:53 PM 75.9 °F 37.0 °F 24% 29.91 in 10.0 mi Calm Calm - N/A   Clear
5:53 PM 70.0 °F 37.9 °F 31% 29.92 in 10.0 mi SSW 3.5 mph - N/A   Clear
6:53 PM 66.9 °F 37.9 °F 34% 29.94 in 10.0 mi Calm Calm - N/A   Clear
7:53 PM 64.0 °F 39.9 °F 41% 29.95 in 10.0 mi Calm Calm - N/A   Clear
8:53 PM 60.1 °F 41.0 °F 49% 29.96 in 10.0 mi SSW 3.5 mph - N/A   Clear
9:53 PM 57.0 °F 41.0 °F 55% 29.96 in 10.0 mi WSW 6.9 mph - N/A   Clear
10:53 PM 55.9 °F 39.0 °F 53% 29.96 in 10.0 mi West 5.8 mph - N/A   Clear
11:53 PM 54.0 °F 39.0 °F 57% 29.96 in 10.0 mi Calm Calm - N/A   Clear